Weather History for LTCJ - July, 2013

Change the Weather History Date:

Sunday, July 7, 2013

  Actual Average (LTCC) Record (LTCC)
Temperature  
Mean Temperature 82 °F -  
Max Temperature 104 °F 98 °F 105 °F (2000)
Min Temperature 59 °F 70 °F 66 °F (1997)
Cooling Degree Days 16    
Growing Degree Days 32 (Base 50)    
Moisture  
Dew Point 42 °F    
Average Humidity 30    
Maximum Humidity 77    
Minimum Humidity 7    
Precipitation  
Precipitation 0.00 in - - ()
Sea Level Pressure  
Sea Level Pressure 29.74 in    
Wind  
Wind Speed 5 mph ()    
Max Wind Speed 9 mph    
Max Gust Speed -    
Averages and records for this station are not official NWS values.
T = Trace of Precipitation, MM = Missing Value Source: Averaged Metar Reports

Daily Weather History Graph

Daily Weather History Graph

Search for Another Location

Airport or City:

Trip Planner

Search our weather history database for the weather conditions in past years. The results will help you decide how hot, cold, wet, or windy it might be!

Date:

Astronomy

Jul. 07, 2013 Rise Set
Actual Time 4:59 AM EEST 7:40 PM EEST
Civil Twilight 4:28 AM EEST 8:11 PM EEST
Nautical Twilight 3:50 AM EEST 8:50 PM EEST
Astronomical Twilight 3:06 AM EEST 9:33 PM EEST
Moon 4:16 AM EEST (7/7) 6:50 PM EEST (7/7)
Length of Visible Light 15h 42m
Length of Day
14h 40m
Waning Crescent, 1% of the Moon is Illuminated
Jul 7
Waning Crescent
Jul 8
New
Jul 16
First Quarter
Jul 22
Full
Jul 29
Last Quarter

Hourly Weather History & Observations

Time (EEST) Temp. Dew Point Humidity Pressure Visibility Wind Dir Wind Speed Gust Speed Precip Events Conditions
12:20 AM 77.0 °F 42.8 °F 29% 29.68 in - South 5.8 mph - N/A   Clear
12:50 AM 68.0 °F 46.4 °F 46% 29.71 in - Variable 1.2 mph - N/A   Clear
1:20 AM 73.4 °F 42.8 °F 33% 29.71 in - SE 2.3 mph - N/A   Clear
1:50 AM 64.4 °F 48.2 °F 56% 29.71 in - North 3.5 mph - N/A   Clear
2:20 AM 62.6 °F 50.0 °F 63% 29.71 in - NNE 6.9 mph - N/A   Clear
2:50 AM 62.6 °F 48.2 °F 59% 29.71 in - North 5.8 mph - N/A   Clear
3:20 AM 60.8 °F 48.2 °F 63% 29.71 in - NE 6.9 mph - N/A   Clear
3:50 AM 60.8 °F 50.0 °F 68% 29.71 in - North 4.6 mph - N/A   Clear
4:20 AM 59.0 °F 51.8 °F 77% 29.74 in - NNE 6.9 mph - N/A   Clear
4:50 AM 59.0 °F 50.0 °F 72% 29.74 in - North 6.9 mph - N/A   Clear
5:20 AM 59.0 °F 50.0 °F 72% 29.74 in - NNE 8.1 mph - N/A   Clear
5:50 AM 62.6 °F 50.0 °F 63% 29.74 in - NE 4.6 mph - N/A   Clear
6:20 AM 68.0 °F 44.6 °F 43% 29.77 in - NNE 5.8 mph - N/A   Clear
6:50 AM 71.6 °F 42.8 °F 35% 29.77 in - NNE 5.8 mph - N/A   Clear
7:20 AM 75.2 °F 41.0 °F 29% 29.77 in - NNE 4.6 mph - N/A   Clear
7:50 AM 80.6 °F 42.8 °F 26% 29.77 in - Variable 2.3 mph - N/A   Clear
8:20 AM 82.4 °F 37.4 °F 20% 29.77 in - Variable 2.3 mph - N/A   Clear
8:50 AM 86.0 °F 35.6 °F 17% 29.77 in - Variable 3.5 mph - N/A   Clear
9:20 AM 86.0 °F 35.6 °F 17% 29.77 in - SSW 4.6 mph - N/A   Clear
9:50 AM 87.8 °F 37.4 °F 17% 29.77 in - SSW 4.6 mph - N/A   Clear
10:20 AM 89.6 °F 35.6 °F 15% 29.77 in - SW 4.6 mph - N/A   Clear
10:50 AM 91.4 °F 35.6 °F 14% 29.77 in - SSW 5.8 mph - N/A   Clear
11:20 AM 93.2 °F 35.6 °F 13% 29.77 in - SSW 6.9 mph - N/A   Clear
11:50 AM 96.8 °F 39.2 °F 14% 29.77 in - SW 4.6 mph - N/A   Clear
12:20 PM 98.6 °F 35.6 °F 11% 29.77 in - WNW 4.6 mph - N/A   Clear
12:50 PM 100.4 °F 32.0 °F 9% 29.77 in - Variable 4.6 mph - N/A   Clear
1:20 PM 102.2 °F 26.6 °F 7% 29.77 in - West 5.8 mph - N/A   Clear
1:50 PM 102.2 °F 28.4 °F 7% 29.77 in - Variable 4.6 mph - N/A   Clear
2:20 PM 102.2 °F 30.2 °F 8% 29.74 in - SW 5.8 mph - N/A   Clear
2:50 PM 102.2 °F 33.8 °F 9% 29.74 in - SSW 6.9 mph - N/A   Clear
3:20 PM 104.0 °F 33.8 °F 9% 29.74 in - SSW 5.8 mph - N/A   Clear
3:50 PM 104.0 °F 37.4 °F 10% 29.74 in - SSW 6.9 mph - N/A   Clear
4:20 PM 102.2 °F 37.4 °F 11% 29.74 in - SSW 6.9 mph - N/A   Clear
4:50 PM 102.2 °F 39.2 °F 11% 29.71 in - SSW 8.1 mph - N/A   Clear
5:20 PM 102.2 °F 33.8 °F 9% 29.71 in - SW 5.8 mph - N/A   Clear
5:50 PM 102.2 °F 33.8 °F 9% 29.71 in - WSW 8.1 mph - N/A   Clear
6:20 PM 98.6 °F 48.2 °F 18% 29.71 in - SSW 5.8 mph - N/A   Clear
6:50 PM 95.0 °F 50.0 °F 22% 29.71 in - South 5.8 mph - N/A   Clear
7:20 PM 93.2 °F 46.4 °F 20% 29.74 in - Variable 2.3 mph - N/A   Clear
7:50 PM 89.6 °F 41.0 °F 18% 29.74 in - Calm Calm - N/A   Clear
8:20 PM 82.4 °F 41.0 °F 23% 29.74 in - North 2.3 mph - N/A   Clear
8:50 PM 80.6 °F 39.2 °F 23% 29.74 in - ENE 5.8 mph - N/A   Clear
9:20 PM 77.0 °F 51.8 °F 41% 29.77 in - NNE 9.2 mph - N/A   Clear
9:50 PM 77.0 °F 53.6 °F 44% 29.77 in - ENE 6.9 mph - N/A   Clear
10:20 PM 75.2 °F 53.6 °F 47% 29.77 in - North 5.8 mph - N/A   Clear
10:50 PM 73.4 °F 51.8 °F 47% 29.77 in - ENE 5.8 mph - N/A   Clear
11:20 PM 75.2 °F 50.0 °F 41% 29.77 in - SE 2.3 mph - N/A   Clear
11:50 PM 73.4 °F 48.2 °F 41% 29.77 in - NW 2.3 mph - N/A   Clear